Hutchinson Municipal Airport Hutchinson US
ICAO: KHUT
IATA: HUT
Category: Medium
Scheduled Services: No

Elevation: 1543 ft
TransAlt. 18000 ft.

Airport Communications:
WICHITA APP DEP:125.5
ATIS:124.25
CTAF:118.5
GND:121.9
WICHITA RDO:122.05
TWR:118.5
UNICOM:122.95

KHUT Zoom In..

If you have problems with the map follow the link
https://www.worldairports.se/pages/airport.php?
ICAO=KHUT

Runways:

(A) RW 04 length 6000 ft width 100 ft
---- / hdg 36

(B) RW 13 length 7004 ft width 100 ft
ILS 110.10 / hdg 132

(C) RW 17 length 4252 ft width 75 ft
---- / hdg 171

(D) RW 22 length 6000 ft width 100 ft
---- / hdg 216

(E) RW 31 length 7004 ft width 100 ft
---- / hdg 312

(F) RW 35 length 4252 ft width 75 ft
---- / hdg 351

Location; KHUT
Day. 16 / Time. 11.52 Zulu
* Altimeter: 30.11
* Temperature: -02° c. -28.4°f.
* Wind from: 000° Speed 00 kn.
Dewpoint: -03° c.
Visibility: 10 Statute Miles.
Clouds: Clear (automated report).

KHUT 161152Z 00000KT 10SM CLR M02/M03 A3011 RMK AO2 SLP200 T10171033 10022 21028 55000


Wind - Calm.

 
 
jpsmedia.com for Web Design worldairports.se 2018   terms of use